Location: Ch�tillon
(48.8024°N, 2.2935°E)
Time: 11:40:38
(UTC+00:00)

Cosmos 1697 Rocket - Pass Details

Date: 26 May 2022
Orbit: 833 x 843 km, 71.0° (Epoch: 03 July)

Event Time Altitude Azimuth Distance (km) Brightness Sun altitude
Rises 20:40:08 0° 215° (SW) 3,388 5.7 -8.4°
Reaches altitude 10° 20:42:35 10° 218° (SW) 2,457 5.0 -8.7°
Maximum altitude 20:48:13 68° 301° (WNW) 909 3.1 -9.3°
Drops below altitude 10° 20:53:52 10° 24° (NNE) 2,471 5.5 -9.9°
Sets 20:56:21 0° 28° (NNE) 3,409 6.2 -10.2°
